TimeEST,TemperatureF,Dew PointF,Humidity,Sea Level PressureIn,VisibilityMPH,Wind Direction,Wind SpeedMPH,Gust SpeedMPH,PrecipitationIn,Events,Conditions,WindDirDegrees,DateUTC
12:12 AM,35.6,32.0,87,29.20,7.0,SSW,10.4,19.6,N/A,Snow,Light Snow,200,2012-12-21 05:12:00
12:32 AM,35.6,32.0,87,29.19,10.0,South,18.4,26.5,N/A,,Overcast,190,2012-12-21 05:32:00
12:52 AM,35.6,32.0,87,29.19,10.0,South,17.3,24.2,N/A,,Overcast,190,2012-12-21 05:52:00
1:12 AM,35.6,32.0,87,29.18,10.0,South,15.0,19.6,N/A,,Overcast,180,2012-12-21 06:12:00
1:32 AM,35.6,30.2,81,29.18,10.0,South,13.8,20.7,N/A,,Overcast,190,2012-12-21 06:32:00
1:53 AM,33.8,32.0,93,29.17,7.0,South,8.1,-,N/A,Snow,Light Snow,190,2012-12-21 06:53:00
2:13 AM,33.8,33.8,100,29.17,5.0,SSW,5.8,-,N/A,Snow,Light Snow,200,2012-12-21 07:13:00
2:33 AM,33.8,33.8,100,29.17,10.0,SSW,10.4,-,N/A,,Overcast,210,2012-12-21 07:33:00
2:53 AM,35.6,33.8,93,29.18,5.0,SW,6.9,-,N/A,Snow,Light Snow,230,2012-12-21 07:53:00
3:13 AM,35.6,33.8,93,29.17,4.0,SW,4.6,-,N/A,Snow,Light Snow,220,2012-12-21 08:13:00
3:33 AM,33.8,33.8,100,29.18,3.0,Calm,Calm,-,N/A,Snow,Light Snow,0,2012-12-21 08:33:00
3:53 AM,33.8,33.8,100,29.18,2.5,Calm,Calm,-,N/A,Snow,Light Snow,0,2012-12-21 08:53:00
4:13 AM,33.8,33.8,100,29.19,2.0,Calm,Calm,-,N/A,Snow,Light Snow,0,2012-12-21 09:13:00
4:33 AM,33.8,33.8,100,29.19,5.0,NW,3.5,-,N/A,,Overcast,310,2012-12-21 09:33:00
4:54 AM,35.6,33.8,93,29.20,10.0,WNW,4.6,-,N/A,,Overcast,290,2012-12-21 09:54:00
5:14 AM,35.6,33.8,93,29.21,10.0,West,8.1,-,N/A,,Overcast,270,2012-12-21 10:14:00
5:34 AM,35.6,33.8,93,29.22,10.0,West,8.1,-,N/A,,Overcast,270,2012-12-21 10:34:00
5:54 AM,35.6,33.8,93,29.22,10.0,West,8.1,-,N/A,,Overcast,260,2012-12-21 10:54:00
6:14 AM,35.6,33.8,93,29.22,7.0,West,8.1,-,N/A,Snow,Light Snow,260,2012-12-21 11:14:00
6:34 AM,35.6,33.8,93,29.23,10.0,West,10.4,-,N/A,,Overcast,260,2012-12-21 11:34:00
6:54 AM,35.6,33.8,93,29.24,4.0,West,12.7,17.3,N/A,Snow,Light Snow,260,2012-12-21 11:54:00
7:14 AM,35.6,33.8,93,29.25,5.0,West,13.8,18.4,N/A,Snow,Light Snow,270,2012-12-21 12:14:00
7:34 AM,35.6,33.8,93,29.26,1.8,WNW,20.7,27.6,N/A,Snow,Light Snow,290,2012-12-21 12:34:00
7:55 AM,33.8,32.0,93,29.28,10.0,WNW,19.6,28.8,N/A,Snow,Light Snow,290,2012-12-21 12:55:00
8:15 AM,33.8,30.2,87,29.29,5.0,WNW,19.6,33.4,N/A,Snow,Light Snow,300,2012-12-21 13:15:00
8:35 AM,33.8,30.2,87,29.30,7.0,WNW,19.6,26.5,N/A,Snow,Light Snow,300,2012-12-21 13:35:00
8:55 AM,33.8,28.4,81,29.32,7.0,NW,21.9,34.5,N/A,Snow,Light Snow,310,2012-12-21 13:55:00
9:15 AM,33.8,28.4,81,29.33,10.0,NW,25.3,41.4,N/A,,Mostly Cloudy,310,2012-12-21 14:15:00
9:35 AM,33.8,28.4,81,29.35,10.0,NW,27.6,35.7,N/A,,Overcast,320,2012-12-21 14:35:00
9:55 AM,33.8,28.4,81,29.36,10.0,NW,25.3,36.8,N/A,Snow,Light Snow,310,2012-12-21 14:55:00
10:15 AM,33.8,28.4,81,29.38,7.0,NW,21.9,36.8,N/A,,Overcast,310,2012-12-21 15:15:00
10:35 AM,33.8,30.2,87,29.39,1.0,WNW,19.6,23.0,N/A,Snow,Light Snow,290,2012-12-21 15:35:00
10:55 AM,33.8,28.4,81,29.40,1.2,WNW,21.9,29.9,N/A,Snow,Light Snow,300,2012-12-21 15:55:00
11:16 AM,33.8,28.4,81,29.42,7.0,NW,24.2,29.9,N/A,,Overcast,310,2012-12-21 16:16:00
11:31 AM,33.8,28.4,81,29.42,4.0,WNW,18.4,27.6,N/A,Snow,Light Snow,300,2012-12-21 16:31:00
11:51 AM,33.8,28.4,81,29.43,7.0,WNW,16.1,25.3,N/A,,Overcast,300,2012-12-21 16:51:00
12:11 PM,32.0,28.4,87,29.45,4.0,NW,19.6,25.3,N/A,Snow,Light Snow,320,2012-12-21 17:11:00
12:31 PM,33.8,26.6,75,29.45,10.0,NW,20.7,39.1,N/A,,Overcast,320,2012-12-21 17:31:00
12:51 PM,33.8,26.6,75,29.46,10.0,NW,26.5,34.5,N/A,,Overcast,320,2012-12-21 17:51:00
1:11 PM,33.8,26.6,75,29.48,10.0,NW,17.3,34.5,N/A,,Overcast,320,2012-12-21 18:11:00
1:31 PM,33.8,28.4,81,29.49,4.0,NW,18.4,26.5,N/A,Snow,Light Snow,310,2012-12-21 18:31:00
1:51 PM,33.8,28.4,81,29.50,10.0,NW,16.1,34.5,N/A,,Overcast,310,2012-12-21 18:51:00
2:11 PM,33.8,26.6,75,29.51,10.0,NW,20.7,28.8,N/A,,Overcast,310,2012-12-21 19:11:00
2:32 PM,33.8,26.6,75,29.52,10.0,NW,18.4,27.6,N/A,,Overcast,320,2012-12-21 19:32:00
2:52 PM,33.8,26.6,75,29.54,10.0,NW,18.4,29.9,N/A,,Overcast,310,2012-12-21 19:52:00
3:12 PM,33.8,26.6,75,29.55,10.0,NW,23.0,33.4,N/A,,Overcast,310,2012-12-21 20:12:00
3:32 PM,33.8,26.6,75,29.56,10.0,NW,19.6,27.6,N/A,,Overcast,310,2012-12-21 20:32:00
3:52 PM,33.8,26.6,75,29.57,10.0,NW,19.6,27.6,N/A,,Overcast,320,2012-12-21 20:52:00
4:12 PM,35.6,26.6,70,29.59,10.0,NW,31.1,38.0,N/A,,Overcast,320,2012-12-21 21:12:00
4:32 PM,33.8,26.6,75,29.60,10.0,NW,18.4,31.1,N/A,,Overcast,310,2012-12-21 21:32:00
4:52 PM,35.6,26.6,70,29.62,10.0,NW,19.6,32.2,N/A,,Overcast,310,2012-12-21 21:52:00
5:12 PM,35.6,26.6,70,29.63,10.0,NW,21.9,29.9,N/A,,Overcast,310,2012-12-21 22:12:00
5:33 PM,33.8,28.4,81,29.65,10.0,NW,15.0,21.9,N/A,,Overcast,310,2012-12-21 22:33:00
5:53 PM,33.8,28.4,81,29.66,10.0,NW,18.4,27.6,N/A,,Overcast,310,2012-12-21 22:53:00
6:13 PM,33.8,28.4,81,29.67,10.0,NW,20.7,34.5,N/A,,Overcast,310,2012-12-21 23:13:00
6:53 PM,35.6,26.6,70,29.69,10.0,NW,20.7,32.2,N/A,,Overcast,310,2012-12-21 23:53:00
7:13 PM,35.6,26.6,70,29.70,10.0,NW,19.6,27.6,N/A,,Overcast,320,2012-12-22 00:13:00
7:33 PM,35.6,26.6,70,29.71,10.0,NW,21.9,28.8,N/A,,Overcast,320,2012-12-22 00:33:00
7:53 PM,35.6,26.6,70,29.72,10.0,NW,23.0,34.5,N/A,,Overcast,320,2012-12-22 00:53:00
8:13 PM,35.6,26.6,70,29.73,10.0,NW,17.3,28.8,N/A,,Overcast,310,2012-12-22 01:13:00
8:33 PM,35.6,26.6,70,29.75,10.0,NW,23.0,36.8,N/A,,Overcast,320,2012-12-22 01:33:00
8:54 PM,35.6,26.6,70,29.76,10.0,NW,28.8,41.4,N/A,,Overcast,320,2012-12-22 01:54:00
9:14 PM,35.6,24.8,65,29.77,10.0,NW,32.2,42.6,N/A,,Overcast,310,2012-12-22 02:14:00
9:34 PM,35.6,24.8,65,29.78,10.0,NW,24.2,38.0,N/A,,Overcast,320,2012-12-22 02:34:00
9:54 PM,35.6,24.8,65,29.79,10.0,NW,21.9,33.4,N/A,,Overcast,310,2012-12-22 02:54:00
10:14 PM,35.6,24.8,65,29.81,10.0,NW,23.0,33.4,N/A,,Overcast,320,2012-12-22 03:14:00
10:34 PM,33.8,24.8,70,29.82,10.0,NW,23.0,33.4,N/A,,Overcast,320,2012-12-22 03:34:00
10:54 PM,33.8,24.8,70,29.83,10.0,NW,21.9,39.1,N/A,,Overcast,310,2012-12-22 03:54:00
11:14 PM,33.8,23.0,65,29.84,10.0,NW,20.7,34.5,N/A,,Overcast,310,2012-12-22 04:14:00
11:34 PM,33.8,23.0,65,29.84,10.0,NW,17.3,35.7,N/A,,Overcast,320,2012-12-22 04:34:00
11:54 PM,33.8,23.0,65,29.86,10.0,NW,21.9,28.8,N/A,,Mostly Cloudy,320,2012-12-22 04:54:00